| time (UTC) | temp F | wind direction | speed MPH | gust MPH | rain 1hr in | rain 24hr in | rain mn in | humidity % | barometer mb |
| 20260504022321 | 49 | 0 | 0.0 | 0.0 | 5.64 | 0.00 | 0.00 | 66 | 1019.8 |
| 20260504021821 | 50 | 0 | 0.0 | 0.0 | 5.64 | 0.00 | 0.00 | 65 | 1019.6 |
| 20260504021321 | 50 | 0 | 0.0 | 0.0 | 5.64 | 0.00 | 0.00 | 63 | 1019.6 |
| 20260504020821 | 49 | 0 | 0.0 | 0.0 | 5.64 | 0.00 | 0.00 | 66 | 1019.6 |
| 20260504020321 | 49 | 0 | 0.0 | 0.0 | 5.64 | 0.00 | 0.00 | 66 | 1019.6 |
| 20260504015821 | 49 | 0 | 0.0 | 0.0 | 5.64 | 0.00 | 0.00 | 67 | 1019.5 |
| 20260504015321 | 49 | 0 | 0.0 | 0.0 | 5.64 | 0.00 | 0.00 | 66 | 1019.5 |
| 20260504014821 | 49 | 0 | 0.0 | 0.0 | 5.64 | 0.00 | 0.00 | 66 | 1019.5 |
| 20260504014321 | 49 | 0 | 0.0 | 0.0 | 5.64 | 0.00 | 0.00 | 68 | 1019.6 |
| 20260504013821 | 49 | 0 | 0.0 | 0.0 | 5.64 | 0.00 | 0.00 | 67 | 1019.5 |
| 20260504013321 | 49 | 0 | 0.0 | 0.0 | 5.64 | 0.00 | 0.00 | 68 | 1019.5 |
| 20260504012821 | 49 | 0 | 0.0 | 0.0 | 5.64 | 0.00 | 0.00 | 69 | 1019.6 |
| 20260504012321 | 48 | 0 | 0.0 | 0.0 | 5.64 | 0.00 | 0.00 | 68 | 1019.5 |
| 20260504011821 | 48 | 0 | 0.0 | 0.0 | 5.64 | 0.00 | 0.00 | 69 | 1019.6 |
| 20260504011321 | 48 | 0 | 0.0 | 0.0 | 5.64 | 0.00 | 0.00 | 69 | 1019.6 |
| 20260504010822 | 48 | 0 | 0.0 | 0.0 | 5.64 | 0.00 | 0.00 | 69 | 1019.6 |
| 20260504010322 | 48 | 0 | 0.0 | 0.0 | 5.64 | 0.00 | 0.00 | 70 | 1019.5 |
| 20260504005821 | 49 | 0 | 0.0 | 0.0 | 5.64 | 0.00 | 0.00 | 69 | 1019.5 |
| 20260504005323 | 49 | 0 | 0.0 | 0.0 | 5.64 | 0.00 | 0.00 | 70 | 1019.5 |
| 20260504005321 | 49 | 0 | 0.0 | 0.0 | 5.64 | 0.00 | 0.00 | 70 | 1019.5 |
| 20260504004823 | 49 | 0 | 0.0 | 0.0 | 5.64 | 0.00 | 0.00 | 69 | 1019.5 |
| 20260504004432 | 49 | 0 | 0.0 | 0.0 | 5.64 | 0.00 | 0.00 | 68 | 1019.5 |
| 20260504004321 | 49 | 0 | 0.0 | 0.0 | 5.64 | 0.00 | 0.00 | 68 | 1019.5 |
| 20260504003821 | 49 | 0 | 0.0 | 0.0 | 5.64 | 0.00 | 0.00 | 69 | 1019.5 |
| 20260504003325 | 49 | 0 | 0.0 | 0.0 | 5.64 | 0.00 | 0.00 | 68 | 1019.4 |
| 20260504003321 | 49 | 0 | 0.0 | 0.0 | 5.64 | 0.00 | 0.00 | 68 | 1019.4 |
| 20260504002823 | 49 | 0 | 0.0 | 0.0 | 5.64 | 0.00 | 0.00 | 67 | 1019.4 |
| 20260504002821 | 49 | 0 | 0.0 | 0.0 | 5.64 | 0.00 | 0.00 | 67 | 1019.4 |
| 20260504002325 | 50 | 0 | 0.0 | 0.0 | 5.64 | 0.00 | 0.00 | 67 | 1019.4 |
| 20260504002321 | 50 | 0 | 0.0 | 0.0 | 5.64 | 0.00 | 0.00 | 67 | 1019.4 |
| 20260504001825 | 50 | 0 | 0.0 | 0.0 | 5.64 | 0.00 | 0.00 | 65 | 1019.5 |
| 20260504001821 | 50 | 0 | 0.0 | 0.0 | 5.64 | 0.00 | 0.00 | 65 | 1019.5 |
| 20260504001324 | 50 | 0 | 0.0 | 0.0 | 5.64 | 0.00 | 0.00 | 64 | 1019.4 |
| 20260504001321 | 50 | 0 | 0.0 | 0.0 | 5.64 | 0.00 | 0.00 | 64 | 1019.4 |
| 20260504000824 | 51 | 0 | 0.0 | 0.0 | 5.64 | 0.00 | 0.00 | 63 | 1019.4 |
| 20260504000822 | 51 | 0 | 0.0 | 0.0 | 5.64 | 0.00 | 0.00 | 63 | 1019.4 |
| 20260504000325 | 51 | 0 | 0.0 | 0.0 | 5.64 | 0.00 | 0.00 | 63 | 1019.4 |
| 20260504000322 | 51 | 0 | 0.0 | 0.0 | 5.64 | 0.00 | 0.00 | 63 | 1019.4 |
| 20260503235824 | 51 | 0 | 0.0 | 0.0 | 5.64 | 0.00 | 0.00 | 63 | 1019.3 |
| 20260503235821 | 51 | 0 | 0.0 | 0.0 | 5.64 | 0.00 | 0.00 | 63 | 1019.3 |
| 20260503235324 | 51 | 0 | 0.0 | 0.0 | 5.64 | 0.00 | 0.00 | 62 | 1019.2 |
| 20260503235321 | 51 | 0 | 0.0 | 0.0 | 5.64 | 0.00 | 0.00 | 62 | 1019.2 |
| 20260503234901 | 51 | 0 | 0.0 | 0.0 | 5.64 | 0.00 | 0.00 | 62 | 1019.4 |
| 20260503234825 | 51 | 0 | 0.0 | 0.0 | 5.64 | 0.00 | 0.00 | 62 | 1019.4 |
| 20260503234822 | 51 | 0 | 0.0 | 0.0 | 5.64 | 0.00 | 0.00 | 62 | 1019.4 |
| 20260503234325 | 51 | 0 | 0.0 | 0.0 | 5.64 | 0.00 | 0.00 | 64 | 1019.5 |
| 20260503234322 | 51 | 0 | 0.0 | 0.0 | 5.64 | 0.00 | 0.00 | 64 | 1019.5 |
| 20260503233823 | 50 | 359 | 0.0 | 2.0 | 5.64 | 0.00 | 0.00 | 64 | 1019.6 |
| 20260503233821 | 50 | 359 | 0.0 | 2.0 | 5.64 | 0.00 | 0.00 | 64 | 1019.6 |
| 20260503233323 | 50 | 359 | 0.0 | 2.0 | 5.64 | 0.00 | 0.00 | 65 | 1019.8 |
| 20260503232823 | 50 | 359 | 0.0 | 3.0 | 5.64 | 0.00 | 0.00 | 65 | 1020.0 |
| 20260503232821 | 50 | 359 | 0.0 | 3.0 | 5.64 | 0.00 | 0.00 | 65 | 1020.0 |
| 20260503232323 | 50 | 359 | 0.0 | 5.0 | 5.64 | 0.00 | 0.00 | 65 | 1020.1 |
| 20260503231822 | 51 | 359 | 0.0 | 3.0 | 5.64 | 0.00 | 0.00 | 66 | 1020.2 |
| 20260503231322 | 51 | 359 | 0.0 | 2.0 | 5.64 | 0.00 | 0.00 | 64 | 1020.3 |
| 20260503230822 | 51 | 359 | 1.0 | 5.0 | 5.64 | 0.00 | 0.00 | 64 | 1020.3 |
| 20260503230327 | 51 | 256 | 5.0 | 26.0 | 5.64 | 0.00 | 0.00 | 64 | 1020.3 |
| 20260503230322 | 51 | 256 | 5.0 | 26.0 | 5.64 | 0.00 | 0.00 | 64 | 1020.3 |
| 20260503225824 | 50 | 0 | 0.0 | 0.0 | 5.64 | 0.00 | 0.00 | 67 | 1020.4 |
| 20260503225822 | 50 | 0 | 0.0 | 0.0 | 5.64 | 0.00 | 0.00 | 67 | 1020.4 |
| 20260503225324 | 50 | 0 | 0.0 | 0.0 | 5.64 | 0.00 | 0.00 | 71 | 1020.4 |
| 20260503225322 | 50 | 0 | 0.0 | 0.0 | 5.64 | 0.00 | 0.00 | 71 | 1020.4 |
| 20260503224825 | 50 | 232 | 1.0 | 11.0 | 5.64 | 0.00 | 0.00 | 73 | 1020.6 |
| 20260503224822 | 50 | 232 | 1.0 | 11.0 | 5.64 | 0.00 | 0.00 | 73 | 1020.6 |
| 20260503224329 | 50 | 214 | 14.0 | 19.0 | 5.64 | 0.00 | 0.00 | 76 | 1020.6 |
| 20260503224322 | 50 | 214 | 14.0 | 19.0 | 5.64 | 0.00 | 0.00 | 76 | 1020.6 |
| 20260503223827 | 50 | 65 | 14.0 | 25.0 | 5.64 | 0.00 | 0.00 | 76 | 1020.8 |
| 20260503223822 | 50 | 65 | 14.0 | 25.0 | 5.64 | 0.00 | 0.00 | 76 | 1020.8 |
| 20260503223325 | 49 | 359 | 1.0 | 5.0 | 5.64 | 0.00 | 0.00 | 77 | 1020.6 |
| 20260503223322 | 49 | 359 | 1.0 | 5.0 | 5.64 | 0.00 | 0.00 | 77 | 1020.6 |
| 20260503222825 | 49 | 319 | 1.0 | 6.0 | 5.64 | 0.00 | 0.00 | 82 | 1020.9 |
| 20260503222822 | 49 | 319 | 1.0 | 6.0 | 5.64 | 0.00 | 0.00 | 82 | 1020.9 |
| 20260503222325 | 48 | 0 | 0.0 | 0.0 | 5.64 | 0.00 | 0.00 | 82 | 1020.9 |
| 20260503222322 | 48 | 0 | 0.0 | 0.0 | 5.64 | 0.00 | 0.00 | 82 | 1020.9 |
| 20260503221823 | 49 | 319 | 1.0 | 6.0 | 5.64 | 0.00 | 0.00 | 83 | 1021.0 |
| 20260503221324 | 48 | 0 | 0.0 | 0.0 | 5.64 | 0.00 | 0.00 | 81 | 1021.0 |
| 20260503221322 | 48 | 0 | 0.0 | 0.0 | 5.64 | 0.00 | 0.00 | 81 | 1021.0 |
| 20260503220823 | 48 | 177 | 0.0 | 2.0 | 5.64 | 0.00 | 0.00 | 81 | 1021.1 |
| 20260503220324 | 48 | 0 | 0.0 | 0.0 | 5.64 | 0.00 | 0.00 | 82 | 1021.0 |
| 20260503220322 | 48 | 0 | 0.0 | 0.0 | 5.64 | 0.00 | 0.00 | 82 | 1021.0 |
| 20260503215823 | 48 | 0 | 0.0 | 0.0 | 5.64 | 0.00 | 0.00 | 86 | 1021.2 |
| 20260503215323 | 47 | 270 | 2.0 | 10.0 | 5.64 | 0.00 | 0.00 | 85 | 1021.3 |
| 20260503214823 | 47 | 302 | 1.0 | 8.0 | 5.64 | 0.00 | 0.00 | 88 | 1021.2 |
| 20260503214323 | 47 | 129 | 0.0 | 0.0 | 5.64 | 0.00 | 0.00 | 87 | 1021.4 |
| 20260503213823 | 47 | 0 | 0.0 | 0.0 | 5.64 | 0.00 | 0.00 | 87 | 1021.4 |
| 20260503213323 | 47 | 271 | 11.0 | 15.0 | 5.64 | 0.00 | 0.00 | 86 | 1021.5 |
| 20260503212824 | 46 | 0 | 0.0 | 0.0 | 5.64 | 0.00 | 0.00 | 87 | 1021.6 |
| 20260503212329 | 46 | 229 | 0.0 | 2.0 | 5.64 | 0.00 | 0.00 | 87 | 1021.4 |
| 20260503212324 | 46 | 229 | 0.0 | 2.0 | 5.64 | 0.00 | 0.00 | 87 | 1021.4 |
| 20260503211826 | 46 | 0 | 0.0 | 0.0 | 5.64 | 0.00 | 0.00 | 84 | 1021.5 |
| 20260503211822 | 46 | 0 | 0.0 | 0.0 | 5.64 | 0.00 | 0.00 | 84 | 1021.5 |
| 20260503211327 | 45 | 0 | 0.0 | 0.0 | 5.64 | 0.00 | 0.00 | 83 | 1021.4 |
| 20260503211322 | 45 | 0 | 0.0 | 0.0 | 5.64 | 0.00 | 0.00 | 83 | 1021.4 |
| 20260503210824 | 45 | 0 | 0.0 | 0.0 | 5.64 | 0.00 | 0.00 | 80 | 1021.3 |
| 20260503210822 | 45 | 0 | 0.0 | 0.0 | 5.64 | 0.00 | 0.00 | 80 | 1021.3 |
| 20260503210324 | 45 | 0 | 0.0 | 0.0 | 5.64 | 0.00 | 0.00 | 85 | 1021.4 |
| 20260503210322 | 45 | 0 | 0.0 | 0.0 | 5.64 | 0.00 | 0.00 | 85 | 1021.4 |
| 20260503205826 | 45 | 0 | 0.0 | 0.0 | 5.64 | 0.00 | 0.00 | 92 | 1021.4 |
| 20260503205822 | 45 | 0 | 0.0 | 0.0 | 5.64 | 0.00 | 0.00 | 92 | 1021.4 |
| 20260503205324 | 45 | 229 | 2.0 | 11.0 | 5.64 | 0.00 | 0.00 | 93 | 1021.3 |
| 20260503205322 | 45 | 229 | 2.0 | 11.0 | 5.64 | 0.00 | 0.00 | 93 | 1021.3 |
| 20260503204823 | 45 | 273 | 11.0 | 16.0 | 5.64 | 0.00 | 0.00 | 93 | 1021.6 |
| 20260503204325 | 45 | 194 | 19.0 | 29.0 | 5.64 | 0.00 | 0.00 | 92 | 1021.5 |
| 20260503204323 | 45 | 194 | 19.0 | 29.0 | 5.64 | 0.00 | 0.00 | 92 | 1021.5 |
| 20260503203823 | 45 | 267 | 20.0 | 25.0 | 5.64 | 0.00 | 0.00 | 89 | 1021.9 |
| 20260503203323 | 45 | 271 | 22.0 | 30.0 | 5.64 | 0.00 | 0.00 | 85 | 1022.0 |
| 20260503202822 | 46 | 274 | 21.0 | 28.0 | 5.64 | 0.00 | 0.00 | 86 | 1022.0 |
| 20260503202323 | 46 | 136 | 26.0 | 34.0 | 5.64 | 0.00 | 0.00 | 82 | 1021.8 |
| 20260503201822 | 46 | 264 | 17.0 | 24.0 | 5.64 | 0.00 | 0.00 | 79 | 1021.9 |
| 20260503201322 | 46 | 281 | 25.0 | 33.0 | 5.64 | 0.00 | 0.00 | 78 | 1021.9 |
| 20260503200822 | 46 | 312 | 24.0 | 37.0 | 5.64 | 0.00 | 0.00 | 79 | 1021.9 |
| 20260503200322 | 47 | 284 | 25.0 | 36.0 | 5.64 | 0.00 | 0.00 | 79 | 1021.8 |
| 20260503195822 | 47 | 338 | 21.0 | 29.0 | 5.64 | 0.00 | 0.00 | 79 | 1022.1 |
| 20260503195323 | 47 | 260 | 17.0 | 22.0 | 5.64 | 0.00 | 0.00 | 79 | 1022.2 |
| 20260503194822 | 48 | 290 | 23.0 | 29.0 | 5.64 | 0.00 | 0.00 | 82 | 1022.1 |
| 20260503194322 | 48 | 66 | 23.0 | 30.0 | 5.64 | 0.00 | 0.00 | 80 | 1022.1 |
| 20260503193822 | 48 | 359 | 19.0 | 34.0 | 5.64 | 0.00 | 0.00 | 80 | 1022.2 |
| 20260503193322 | 50 | 359 | 0.0 | 2.0 | 5.64 | 0.00 | 0.00 | 74 | 1022.1 |
| 20260503192823 | 50 | 356 | 6.0 | 35.0 | 5.64 | 0.00 | 0.00 | 65 | 1022.2 |
| 20260503192323 | 50 | 210 | 24.0 | 35.0 | 5.64 | 0.00 | 0.00 | 65 | 1022.2 |
| 20260503191823 | 50 | 359 | 16.0 | 36.0 | 5.64 | 0.00 | 0.00 | 65 | 1022.1 |
| 20260503191322 | 50 | 4 | 18.0 | 29.0 | 5.64 | 0.00 | 0.00 | 64 | 1022.0 |
| 20260503190822 | 51 | 253 | 22.0 | 31.0 | 5.64 | 0.00 | 0.00 | 60 | 1022.2 |
| 20260503190322 | 52 | 339 | 4.0 | 32.0 | 5.64 | 0.00 | 0.00 | 56 | 1022.1 |
| 20260503185822 | 52 | 0 | 0.0 | 0.0 | 5.64 | 0.00 | 0.00 | 59 | 1022.1 |
| 20260503185322 | 52 | 304 | 0.0 | 3.0 | 5.64 | 0.00 | 0.00 | 58 | 1022.0 |
| 20260503184822 | 52 | 0 | 0.0 | 0.0 | 5.64 | 0.00 | 0.00 | 58 | 1022.3 |
| 20260503184322 | 52 | 0 | 0.0 | 0.0 | 5.64 | 0.00 | 0.00 | 59 | 1022.2 |
| 20260503183823 | 52 | 0 | 0.0 | 0.0 | 5.64 | 0.00 | 0.00 | 58 | 1022.3 |
| 20260503183322 | 52 | 0 | 0.0 | 0.0 | 5.64 | 0.00 | 0.00 | 59 | 1022.3 |
| 20260503182822 | 52 | 304 | 7.0 | 30.0 | 5.64 | 0.00 | 0.00 | 59 | 1022.5 |
| 20260503182324 | 52 | 256 | 18.0 | 35.0 | 5.64 | 0.00 | 0.00 | 57 | 1022.3 |
| 20260503181822 | 53 | 285 | 20.0 | 28.0 | 5.64 | 0.00 | 0.00 | 54 | 1022.6 |
| 20260503181322 | 53 | 59 | 19.0 | 28.0 | 5.64 | 0.00 | 0.00 | 51 | 1022.5 |
| 20260503180822 | 53 | 0 | 0.0 | 0.0 | 5.64 | 0.00 | 0.00 | 53 | 1022.7 |
| 20260503180322 | 53 | 20 | 20.0 | 31.0 | 5.64 | 0.00 | 0.00 | 51 | 1022.7 |
| 20260503175823 | 53 | 314 | 1.0 | 10.0 | 5.64 | 0.00 | 0.00 | 53 | 1022.7 |
| 20260503175322 | 53 | 194 | 18.0 | 25.0 | 5.64 | 0.00 | 0.00 | 52 | 1022.8 |
| 20260503174823 | 53 | 49 | 16.0 | 21.0 | 5.64 | 0.00 | 0.00 | 52 | 1023.1 |
| 20260503174322 | 53 | 359 | 1.0 | 9.0 | 5.64 | 0.00 | 0.00 | 56 | 1023.2 |
| 20260503173822 | 53 | 0 | 0.0 | 0.0 | 5.64 | 0.00 | 0.00 | 57 | 1023.3 |
| 20260503173323 | 52 | 0 | 0.0 | 0.0 | 5.64 | 0.00 | 0.00 | 57 | 1023.5 |
| 20260503172822 | 51 | 0 | 0.0 | 0.0 | 5.64 | 0.00 | 0.00 | 54 | 1023.6 |
| 20260503171323 | 51 | 0 | 0.0 | 0.0 | 5.64 | 0.00 | 0.00 | 56 | 1023.8 |
| 20260503170822 | 51 | 0 | 0.0 | 0.0 | 5.64 | 0.00 | 0.00 | 55 | 1023.8 |
| 20260503170323 | 51 | 0 | 0.0 | 0.0 | 5.64 | 0.00 | 0.00 | 55 | 1023.9 |
| 20260503150823 | 22 | 315 | 0.0 | 3.0 | 5.64 | 0.00 | 0.00 | 58 | 1025.5 |
| 20260503150323 | 43 | 0 | 0.0 | 0.0 | 5.64 | 0.00 | 0.00 | 54 | 1025.5 |
| 20260503131324 | 0 | 0 | 0.0 | 0.0 | 5.64 | 0.00 | 0.00 | 80 | 1026.9 |
| 20260503130823 | 0 | 0 | 0.0 | 0.0 | 5.64 | 0.00 | 0.00 | 80 | 1026.9 |
| 20260503130323 | 0 | 0 | 0.0 | 0.0 | 5.64 | 0.00 | 0.00 | 82 | 1026.9 |
| 20260503110823 | 0 | 0 | 0.0 | 0.0 | 5.64 | 0.00 | 0.00 | 86 | 1026.3 |
| 20260503110323 | 0 | 277 | 8.0 | 15.0 | 5.64 | 0.00 | 0.00 | 86 | 1026.2 |
| 20260503090324 | -55 | 0 | 0.0 | 0.0 | 5.64 | 0.00 | 0.00 | 85 | 1027.1 |
| 20260503081324 | -55 | 0 | 0.0 | 0.0 | 5.64 | 0.00 | 0.00 | 83 | 1027.3 |
| 20260503080824 | -55 | 0 | 0.0 | 0.0 | 5.64 | 0.00 | 0.00 | 82 | 1027.4 |
| 20260503080324 | -55 | 0 | 0.0 | 0.0 | 5.64 | 0.00 | 0.00 | 81 | 1027.2 |
| 20260503072824 | -55 | 0 | 0.0 | 0.0 | 5.64 | 0.00 | 0.00 | 78 | 1027.1 |
| 20260503072324 | -55 | 0 | 0.0 | 0.0 | 5.64 | 0.00 | 0.00 | 77 | 1027.1 |
| 20260503071824 | -55 | 0 | 0.0 | 0.0 | 5.64 | 0.00 | 0.00 | 77 | 1027.1 |
| 20260503071324 | -55 | 0 | 0.0 | 0.0 | 5.64 | 0.00 | 0.00 | 76 | 1027.1 |
| 20260503070824 | -55 | 0 | 0.0 | 0.0 | 5.64 | 0.00 | 0.00 | 75 | 1027.1 |
| 20260503070324 | -55 | 0 | 0.0 | 0.0 | 5.64 | 0.00 | 0.00 | 74 | 1027.1 |
| 20260503060324 | 0 | 0 | 0.0 | 0.0 | 5.64 | 0.00 | 0.00 | 68 | 1027.6 |
| 20260503054824 | -55 | 0 | 0.0 | 0.0 | 5.64 | 0.00 | 0.00 | 67 | 1027.6 |
| 20260503054324 | -55 | 0 | 0.0 | 0.0 | 5.64 | 0.00 | 0.00 | 67 | 1027.7 |
| 20260503053824 | -55 | 0 | 0.0 | 0.0 | 5.64 | 0.00 | 0.00 | 65 | 1027.6 |
| 20260503053324 | -55 | 0 | 0.0 | 0.0 | 5.64 | 0.00 | 0.00 | 65 | 1027.7 |
| 20260503052824 | -55 | 0 | 0.0 | 0.0 | 5.64 | 0.00 | 0.00 | 64 | 1027.7 |
| 20260503052324 | -55 | 0 | 0.0 | 0.0 | 5.64 | 0.00 | 0.00 | 63 | 1028.0 |
| 20260503051824 | -55 | 0 | 0.0 | 0.0 | 5.64 | 0.00 | 0.00 | 63 | 1028.0 |
| 20260503051324 | -55 | 0 | 0.0 | 0.0 | 5.64 | 0.00 | 0.00 | 63 | 1027.9 |
| 20260503050824 | -55 | 0 | 0.0 | 0.0 | 5.64 | 0.00 | 0.00 | 62 | 1028.0 |
| 20260503050326 | -55 | 0 | 0.0 | 0.0 | 5.64 | 0.00 | 0.00 | 62 | 1027.9 |
| 20260503045824 | -55 | 0 | 0.0 | 0.0 | 5.64 | 0.00 | 0.00 | 60 | 1027.9 |
| 20260503045325 | -55 | 0 | 0.0 | 0.0 | 5.64 | 0.00 | 0.00 | 60 | 1027.9 |
| 20260503044824 | -55 | 0 | 0.0 | 0.0 | 5.64 | 0.00 | 0.00 | 60 | 1028.0 |
| 20260503044324 | -55 | 0 | 0.0 | 0.0 | 5.64 | 0.00 | 0.00 | 60 | 1028.1 |
| 20260503043824 | -54 | 0 | 0.0 | 0.0 | 5.64 | 0.00 | 0.00 | 59 | 1028.0 |
| 20260503043325 | -55 | 0 | 0.0 | 0.0 | 5.64 | 0.00 | 0.00 | 61 | 1028.1 |
| 20260503042824 | -54 | 0 | 0.0 | 0.0 | 5.64 | 0.00 | 0.00 | 60 | 1028.1 |
| 20260503042325 | -55 | 228 | 1.0 | 5.0 | 5.64 | 0.00 | 0.00 | 60 | 1028.2 |
| 20260503041826 | -54 | 0 | 0.0 | 0.0 | 5.64 | 0.00 | 0.00 | 60 | 1028.2 |
| 20260503041325 | -55 | 0 | 0.0 | 0.0 | 5.64 | 0.00 | 0.00 | 61 | 1028.2 |
| 20260503040824 | -55 | 0 | 0.0 | 0.0 | 5.64 | 0.00 | 0.00 | 61 | 1028.1 |
| 20260503040324 | -55 | 297 | 1.0 | 7.0 | 5.64 | 0.00 | 0.00 | 63 | 1028.2 |
| 20260503035824 | -52 | 0 | 0.0 | 0.0 | 5.64 | 0.00 | 0.00 | 61 | 1028.3 |
| 20260503035324 | -55 | 0 | 0.0 | 0.0 | 5.64 | 0.00 | 0.00 | 62 | 1028.2 |
| 20260503034824 | -55 | 0 | 0.0 | 0.0 | 5.64 | 0.00 | 0.00 | 63 | 1028.2 |
| 20260503034325 | -55 | 274 | 5.0 | 14.0 | 5.64 | 0.00 | 0.00 | 62 | 1028.2 |
| 20260503033824 | -55 | 0 | 0.0 | 0.0 | 5.64 | 0.00 | 0.00 | 62 | 1028.2 |
| 20260503033326 | -55 | 0 | 0.0 | 0.0 | 5.64 | 0.00 | 0.00 | 62 | 1028.2 |
| 20260503032824 | -46 | 0 | 0.0 | 0.0 | 5.64 | 0.00 | 0.00 | 61 | 1028.3 |
| 20260503032324 | -55 | 0 | 0.0 | 0.0 | 5.64 | 0.00 | 0.00 | 61 | 1028.3 |
| 20260503031824 | -55 | 0 | 0.0 | 0.0 | 5.64 | 0.00 | 0.00 | 60 | 1028.3 |
| 20260503031324 | -49 | 0 | 0.0 | 0.0 | 5.64 | 0.00 | 0.00 | 60 | 1028.3 |
| 20260503030824 | -55 | 0 | 0.0 | 0.0 | 5.64 | 0.00 | 0.00 | 60 | 1028.3 |
| 20260503030325 | -55 | 143 | 5.0 | 10.0 | 5.64 | 0.00 | 0.00 | 60 | 1028.3 |
| 20260503025825 | -55 | 0 | 0.0 | 0.0 | 5.64 | 0.00 | 0.00 | 60 | 1028.4 |
| 20260503025325 | -55 | 0 | 0.0 | 0.0 | 5.64 | 0.00 | 0.00 | 60 | 1028.4 |
| 20260503024825 | -55 | 0 | 0.0 | 0.0 | 5.64 | 0.00 | 0.00 | 60 | 1028.4 |
| 20260503024325 | -55 | 0 | 0.0 | 0.0 | 5.64 | 0.00 | 0.00 | 60 | 1028.4 |
| 20260503023825 | -55 | 0 | 0.0 | 0.0 | 5.64 | 0.00 | 0.00 | 60 | 1028.5 |
| 20260503023325 | -55 | 0 | 0.0 | 0.0 | 5.64 | 0.00 | 0.00 | 60 | 1028.5 |
| 20260503022825 | 0 | 0 | 0.0 | 0.0 | 5.64 | 0.00 | 0.00 | 59 | 1028.6 |